Location: Unspecified
(44.4279°N, 26.1118°E)
Time: 08:20:35
(UTC+03:00)

Daily predictions for brighter satellites

Satellite Brightness Start Highest point End
(mag) Time Altitude Azimuth Time Altitude Azimuth Time Altitude Azimuth
Cosmos 1703 Rocket 3.9 19:24:39 10° NNW 19:28:58 72° W 19:33:16 10° S
Cosmos 407 Rocket 4.0 19:27:27 10° SSW 19:32:32 65° WNW 19:37:43 10° NNE
Cosmos 1763 Rocket 3.8 19:27:39 10° N 19:32:32 46° ENE 19:37:24 10° SE
NOSS 3-1 (A) 4.2 19:25:17 10° NNW 19:32:35 60° NE 19:41:13 10° SE
PAYLOAD B 4.2 19:29:14 10° SSE 19:34:44 76° ENE 19:40:15 10° NNW
Cosmos 2227 Rocket 2.2 19:31:06 10° NNW 19:36:44 64° ENE 19:42:20 10° SE
Cosmos 1674 2.8 19:34:20 10° N 19:38:00 49° ENE 19:41:38 10° SSE
Okean-O 4.4 19:36:53 10° E 19:39:11 14° ENE 19:41:28 10° NNE
CZ-4B R/B 3.2 19:34:34 10° SSE 19:39:47 58° ENE 19:45:06 10° N
ATLAS 3B R/B 4.4 19:36:50 10° NW 19:43:41 39° WSW 19:50:40 10° S
DMSP B5D2-2 4.4 19:39:22 10° N 19:44:39 76° WNW 19:49:54 10° SSW
NOSS 2-2 (D) 4.4 19:40:45 10° NNW 19:45:37 57° NE 19:52:28 10° SE
Spot 1 3.9 19:41:56 10° NNE 19:46:17 80° ESE 19:50:24 10° SSW
KORONAS-FOTON 3.7 19:42:58 10° N 19:46:52 71° E 19:50:42 10° SSE
Meteor 2-19 Rocket 4.4 19:41:00 10° S 19:47:05 79° E 19:53:14 10° N
USA 215 4.4 19:41:59 10° NE 19:47:59 40° NNW 19:53:58 10° W
Tsikada Rocket 4.4 19:41:53 10° SSW 19:48:17 76° W 19:54:44 10° N
Cosmos 1733 Rocket 3.6 19:45:28 10° SSE 19:49:30 36° E 19:53:35 10° NNE
Cosmos 1726 3.5 19:47:44 10° SE 19:50:14 18° E 19:52:45 10° NE
Cosmos 1656 4.3 19:45:16 10° SW 19:50:46 61° WNW 19:56:24 10° NNE
Cosmos 2297 Rocket 2.7 19:45:52 10° NNW 19:51:30 66° WSW 19:57:05 10° SSE
Cosmos 1733 3.7 19:49:08 10° SSE 19:52:34 35° E 19:56:01 10° NNE
Cosmos 1980 Rocket 2.8 19:48:15 10° SSE 19:53:16 34° ESE 19:58:16 10° NE
Cosmos 2369 4.2 19:48:28 10° S 19:53:40 37° ESE 19:58:53 10° NE
Cosmos 1707 3.2 19:51:05 10° NNW 19:54:51 63° W 19:58:36 10° S
COSMO-SKYMED 1 3.6 19:51:36 10° N 19:55:50 51° WNW 20:00:01 10° SSW
ISS -2.1 19:59:29 10° NW 20:02:20 24° N 20:04:38 13° ENE
Cosmos 1242 Rocket 2.6 19:59:28 10° S 20:02:54 49° E 20:06:22 10° NNE
CZ-2C R/B 2.9 20:01:45 10° SW 20:03:56 17° S 20:05:50 11° SE
SL-4 R/B 3.5 20:01:59 10° WNW 20:06:01 32° N 20:09:49 12° ENE
Cosmos 676 Rocket 4.1 20:04:36 10° SSW 20:09:46 78° WNW 20:14:59 10° NNE
CZ-4C R/B 4.5 20:03:14 10° NW 20:10:08 39° WSW 20:17:55 10° S
Nadezhda 4 Rocket 4.4 20:06:38 10° SSE 20:12:25 39° E 20:18:14 10° NNE
ARGOS Delta rocket 4.2 20:09:17 10° N 20:14:41 79° WNW 20:19:49 10° SSW
CZ-3 Stage 3 4.2 20:09:49 10° SW 20:14:48 33° SSE 20:25:49 17° ESE
Okean O Rocket 1.6 20:12:04 10° SSE 20:16:24 87° WSW 20:20:47 10° NNW
HJ-1C 3.7 20:15:54 10° S 20:18:59 61° W 20:22:05 10° NNW
USA 186 3.0 20:22:22 21° NE 20:22:22 21° NE 20:23:51 10° NNE
Cosmos 2084 3.1 20:19:23 10° SSW 20:23:09 60° SE 20:26:19 14° NE
SL-14 R/B 3.2 20:20:25 10° N 20:24:19 59° E 20:27:43 13° SSE
Cosmos 2219 3.6 20:18:40 10° NNW 20:24:23 68° WSW 20:30:05 10° SSE
Helios 1B 4.4 20:24:05 10° NNE 20:28:26 71° ESE 20:32:43 10° S
Cosmos 1626 3.8 20:26:27 10° NNW 20:29:47 35° W 20:33:05 10° SSW
Cosmos 1908 Rocket 4.1 20:28:50 24° SE 20:30:41 34° E 20:34:36 10° NNE
Meteor 2-21 4.3 20:27:40 10° S 20:33:39 67° E 20:39:38 10° NNE
Cosmos 1809 Rocket 4.3 20:28:09 10° S 20:34:13 83° E 20:40:19 10° N
Cosmos 1805 3.5 20:34:08 10° SSW 20:37:59 68° W 20:41:52 10° N
Cosmos 2263 Rocket 2.3 20:36:14 10° NNW 20:41:50 55° ENE 20:44:20 31° ESE
Meteor 2-10 4.2 20:36:34 10° S 20:42:16 90° W 20:47:53 10° N
YAOGAN 1 4.1 20:39:52 10° SSW 20:43:51 36° W 20:47:52 10° NNW
Cosmos 2082 3.7 20:39:45 10° NNW 20:45:31 84° WSW 20:49:50 18° SSE
deb Chang Zheng 4 4.3 20:45:57 31° ENE 20:45:57 31° ENE 20:49:17 10° N
Cosmos 1092 Rocket 4.4 20:41:32 16° SSE 20:46:02 40° E 20:51:50 10° NNE
Cosmos 1766 3.1 20:43:31 10° S 20:47:23 71° E 20:51:18 10° NNE
Cosmos 1674 Rocket 3.5 20:43:37 10° N 20:48:01 87° WSW 20:51:22 17° S
Meteor 1-12 Rocket 4.3 20:45:15 10° S 20:51:08 65° E 20:57:06 10° NNE
Cosmos 2221 Rocket 4.3 20:49:10 10° NNW 20:53:35 56° W 20:58:00 10° S
CZ-4 R/B 2.9 20:50:07 10° SSW 20:53:59 38° W 20:57:54 10° NNW
CRYOSAT 2 4.4 20:52:49 40° SE 20:54:11 54° E 20:58:58 10° N
Cosmos 1850 Rocket 4.0 20:48:59 10° SSW 20:54:11 82° WNW 20:59:28 10° NNE
Resurs 01 Rocket 2.8 20:55:19 26° NE 20:55:19 26° NE 20:58:13 10° N
Ariane Rocket 4.5 20:56:46 21° NE 20:56:46 21° NE 20:59:47 10° NNE
USA 229 DEB 4.1 20:48:59 10° NW 20:56:24 74° WSW 21:02:08 20° SSE
USA 229 4.1 20:49:05 10° NW 20:56:29 74° WSW 21:02:11 21° SSE
Cosmos 1697 Rocket 4.0 20:53:06 10° SW 20:58:20 40° WNW 21:03:37 10° NNE
CSL-04 Debris 4.2 20:56:32 17° SSE 21:00:51 82° WSW 21:06:17 10° NNW
OBJECT-B 2.0 21:01:57 34° WNW 21:01:57 34° WNW 21:03:57 10° NNW
Gbstr 26 Del rocket 4.4 20:55:06 10° SW 21:02:41 66° SE 21:07:46 25° ENE
BREEZE M DEB (TANK) 3.3 20:57:26 10° SW 21:02:33 36° S 21:02:33 36° S
Cosmos 841 Rocket 3.6 20:58:20 10° NNW 21:03:32 73° WSW 21:06:14 28° S
Cosmos 540 Rocket 4.4 20:59:20 10° NNW 21:04:11 45° WSW 21:08:49 11° S
Landsat 5 3.9 21:00:11 10° N 21:04:40 70° WNW 21:09:07 10° SSW
Cosmos 1975 Rocket 4.3 21:06:44 10° N 21:09:18 28° NNE 21:09:18 28° NNE
JB-3 4.4 21:09:12 10° N 21:13:18 81° WNW 21:13:59 60° SSW
USA 81 4.1 21:08:59 10° N 21:13:57 54° ENE 21:13:57 54° ENE
Okean-O 2.8 21:13:45 43° S 21:15:05 68° WSW 21:19:31 10° NNW
SJ-6B 3.5 21:16:00 43° SW 21:16:37 48° W 21:20:15 10° NNW
H-2A R/B 3.3 21:18:34 39° N 21:18:34 39° N 21:21:12 10° N
Cosmos 2292 Rocket 4.1 21:10:50 10° S 21:17:16 89° W 21:22:06 10° N
Cosmos 1627 Rocket 4.3 21:18:02 45° SSE 21:19:48 65° E 21:25:52 10° NNE
Resurs 1-3 3.7 21:24:21 65° SW 21:24:42 69° WSW 21:29:05 10° NNW
Cosmos 1726 4.1 21:21:44 10° SW 21:24:55 29° WNW 21:28:09 10° NNW
IRS-1C Rocket 4.4 21:22:56 34° S 21:25:11 65° WSW 21:30:26 10° NNW
MOS 1 4.2 21:31:20 68° ENE 21:31:20 68° ENE 21:36:57 10° N
Cosmos 2195 Rocket 4.4 21:27:57 17° S 21:32:56 87° W 21:39:15 10° N
CSL-04 Rocket 4.5 21:31:11 23° SSW 21:34:11 47° W 21:39:22 10° NNW
Cosmos 1428 Rocket 4.4 21:31:54 27° S 21:35:32 87° W 21:41:47 10° N
Meteor 1-24 Rocket 3.5 21:31:38 10° N 21:36:45 82° NNE 21:36:45 82° NNE
Landsat 7 4.2 21:36:39 56° SW 21:37:05 59° W 21:41:45 10° NNW
Cosmos 1980 Rocket 3.5 21:31:55 10° SW 21:37:10 39° NW 21:42:26 10° NNE
Timation 2 Rocket 4.4 21:31:37 10° NNW 21:37:57 58° WSW 21:39:59 40° SSW
Cosmos 2285 Rocket 4.0 21:32:54 10° NNW 21:39:15 80° WSW 21:40:30 59° S
ISS -1.2 21:36:10 10° NW 21:37:31 22° NW 21:37:31 22° NW
Cosmos 1814 Rocket 4.1 21:34:45 10° NNW 21:39:59 69° WSW 21:40:11 68° SW
Meteor 1-22 Rocket 4.1 21:41:10 73° SW 21:41:36 80° W 21:47:07 10° N
SPOT 1/Viking Rocket 3.7 21:44:29 63° N 21:44:29 63° N 21:48:49 10° NNW
Cosmos 2278 4.2 21:40:35 10° SW 21:46:11 57° WNW 21:51:48 10° NNE
SL-4 R/B 3.3 21:41:46 10° NW 21:45:13 42° NNW 21:45:13 42° NNW
SL-16 R/B 4.4 21:56:18 13° NNE 21:56:18 13° NNE 21:56:55 10° NNE
Cosmos 2026 Rocket 4.0 21:49:46 50° SSW 21:51:22 75° W 21:57:27 10° N
Terra 4.3 21:57:09 13° NNE 21:57:09 13° NNE 21:57:45 10° NNE
Cosmos 1553 Rocket 4.2 21:48:41 10° N 21:54:03 60° NNE 21:54:03 60° NNE
Meteor 2-5 Rocket 4.1 21:50:33 10° NNW 21:55:59 57° W 21:56:22 56° WSW
Cosmos 1844 Rocket 3.7 22:04:11 10° NNW 22:07:54 39° N 22:07:54 39° N
USA 281 3.8 22:14:25 46° NNE 22:14:25 46° NNE 22:19:31 10° NNW
Cosmos 2263 Rocket 4.0 22:20:55 10° NW 22:25:21 24° WSW 22:26:04 23° WSW
Resurs 01 Rocket 4.0 22:32:53 20° NW 22:32:53 20° NW 22:34:44 10° NW
USA 215 4.5 23:13:22 35° N 23:13:22 35° N 23:17:56 10° NW
